#�ϑ�����,���ϕ���,���ϕ���,�ő啗��,�ő啗����������,�ő�u�ԕ���,�ő�u�ԕ�����������
#(�N����),(m/s)   ,(16����),(m/s)   ,(16����)        ,(m/s)       ,(16����)            
2014/1/13 0:01,1.6,1,1.7,16,1.6,2
2014/1/13 0:02,1.5,1,1.6,16,0.6,15
2014/1/13 0:03,1.4,1,1.5,16,1.5,15
2014/1/13 0:04,1.3,1,1.4,16,1.5,15
2014/1/13 0:05,1.3,16,1.3,16,1.3,15
2014/1/13 0:06,1.3,16,1.3,16,1.5,16
2014/1/13 0:07,1.2,16,1.3,16,2.1,15
2014/1/13 0:08,1.1,16,1.2,16,1.9,15
2014/1/13 0:09,1,16,1.1,1,1.4,15
2014/1/13 0:10,0.9,15,1,1,0.8,15
2014/1/13 0:11,0.8,15,0.9,1,0,12
2014/1/13 0:12,0.8,14,0.8,1,0,12
2014/1/13 0:13,0.7,14,0.8,1,0.1,5
2014/1/13 0:14,0.6,14,0.7,1,0.1,5
2014/1/13 0:15,0.5,15,0.6,16,0,5
2014/1/13 0:16,0.4,16,0.5,16,0.1,4
2014/1/13 0:17,0.3,16,0.4,16,0.1,16
2014/1/13 0:18,0.1,1,0.3,16,0.1,1
2014/1/13 0:19,0,1,0.1,16,0.1,2
2014/1/13 0:20,0,2,0,15,0.1,2
2014/1/13 0:21,0,2,0,15,0.9,1
2014/1/13 0:22,0.1,2,0.1,14,0.8,1
2014/1/13 0:23,0.1,2,0.1,14,0.4,2
2014/1/13 0:24,0.1,2,0.1,14,0,2
2014/1/13 0:25,0.1,2,0.1,15,0,2
2014/1/13 0:26,0.1,2,0.1,16,0,5
2014/1/13 0:27,0.1,2,0.1,16,0,5
2014/1/13 0:28,0.1,3,0.1,1,0.1,12
2014/1/13 0:29,0.1,3,0.1,2,0,12
2014/1/13 0:30,0.1,3,0.1,2,0,11
2014/1/13 0:31,0.1,2,0.1,2,0.8,14
2014/1/13 0:32,0.1,2,0.1,2,0.9,14
2014/1/13 0:33,0.2,16,0.2,16,0.9,14
2014/1/13 0:34,0.2,15,0.2,16,0.9,15
2014/1/13 0:35,0.3,14,0.3,15,1.1,16
2014/1/13 0:36,0.4,14,0.4,14,0.9,16
2014/1/13 0:37,0.4,14,0.4,14,0.3,1
2014/1/13 0:38,0.4,14,0.4,14,0.5,11
2014/1/13 0:39,0.4,14,0.4,14,0.5,15
2014/1/13 0:40,0.5,15,0.5,14,0.5,15
2014/1/13 0:41,0.5,15,0.5,14,0.8,16
2014/1/13 0:42,0.5,15,0.5,14,0.8,16
2014/1/13 0:43,0.5,15,0.5,14,0.6,15
2014/1/13 0:44,0.4,15,0.5,14,0.4,15
2014/1/13 0:45,0.3,15,0.4,14,0.1,12
2014/1/13 0:46,0.3,14,0.3,14,0.8,12
2014/1/13 0:47,0.4,14,0.4,14,1.1,11
2014/1/13 0:48,0.5,14,0.5,14,1.4,11
2014/1/13 0:49,0.5,13,0.5,14,1.3,8
2014/1/13 0:50,0.5,13,0.5,15,1.1,9
2014/1/13 0:51,0.6,12,0.6,12,1,11
2014/1/13 0:52,0.6,11,0.6,12,1.1,9
2014/1/13 0:53,0.6,11,0.6,12,1.6,9
2014/1/13 0:54,0.7,10,0.7,11,1.8,10
2014/1/13 0:55,0.8,10,0.8,10,0.8,8
2014/1/13 0:56,0.8,9,0.8,10,0.8,8
2014/1/13 0:57,0.7,9,0.8,10,1,8
2014/1/13 0:58,0.6,9,0.7,10,0.6,8
2014/1/13 0:59,0.6,9,0.6,10,0.3,8
2014/1/13 1:00,0.5,8,0.6,10,0.1,6
2014/1/13 1:01,0.5,8,0.5,10,0.1,4
2014/1/13 1:02,0.4,7,0.4,10,0.6,1
2014/1/13 1:03,0.3,6,0.4,10,0.9,1
2014/1/13 1:04,0.2,6,0.3,10,0.4,5
2014/1/13 1:05,0.2,5,0.2,10,0.4,4
2014/1/13 1:06,0.2,5,0.2,9,0.6,6
2014/1/13 1:07,0.1,4,0.2,9,0.6,11
2014/1/13 1:08,0.1,4,0.1,9,0.5,9
2014/1/13 1:09,0.1,4,0.1,9,0.1,11
2014/1/13 1:10,0.1,4,0.1,8,0,11
2014/1/13 1:11,0.1,8,0.1,8,0.1,11
2014/1/13 1:12,0.1,8,0.1,7,0,7
2014/1/13 1:13,0.1,8,0.1,6,0,6
2014/1/13 1:14,0.1,8,0.1,6,0,6
2014/1/13 1:15,0.1,8,0.1,5,0.6,10
2014/1/13 1:16,0.1,9,0.1,5,0.5,10
2014/1/13 1:17,0.1,9,0.1,5,0.3,10
2014/1/13 1:18,0.1,9,0.1,4,0.6,11
2014/1/13 1:19,0.1,9,0.1,4,0.4,12
2014/1/13 1:20,0.1,9,0.1,5,0.1,12
2014/1/13 1:21,0.1,9,0.1,8,0.1,11
2014/1/13 1:22,0.1,10,0.1,8,0.1,12
2014/1/13 1:23,0.2,11,0.2,11,0.6,13
2014/1/13 1:24,0.2,11,0.2,11,0.5,15
2014/1/13 1:25,0.2,12,0.2,11,1,16
2014/1/13 1:26,0.3,12,0.3,12,1.4,15
2014/1/13 1:27,0.4,13,0.4,13,1.9,15
2014/1/13 1:28,0.5,13,0.5,13,2.1,15
2014/1/13 1:29,0.7,14,0.7,14,2.1,16
2014/1/13 1:30,0.8,14,0.8,14,2.1,15
2014/1/13 1:31,1,15,1,15,2.1,16
2014/1/13 1:32,1.2,15,1.2,15,2.4,15
2014/1/13 1:33,1.3,15,1.3,15,2.9,16
2014/1/13 1:34,1.5,15,1.5,15,2.7,16
2014/1/13 1:35,1.7,15,1.7,15,2.7,15
2014/1/13 1:36,1.8,16,1.8,16,2.7,15
2014/1/13 1:37,1.8,16,1.8,16,2.5,16
2014/1/13 1:38,1.9,16,1.9,16,2.6,15
2014/1/13 1:39,1.9,16,1.9,16,2.4,16
2014/1/13 1:40,1.9,16,1.9,16,2.2,16
2014/1/13 1:41,1.8,16,1.9,16,1.8,16
2014/1/13 1:42,1.7,16,1.8,16,0.5,8
2014/1/13 1:43,1.6,16,1.6,16,1.6,10
2014/1/13 1:44,1.5,16,1.5,16,1.8,8
2014/1/13 1:45,1.3,15,1.5,16,1.5,9
2014/1/13 1:46,1.1,14,1.3,16,0.1,8
2014/1/13 1:47,1,12,1.1,16,0.9,10
2014/1/13 1:48,0.9,11,1,16,1.5,9
2014/1/13 1:49,0.8,10,0.9,16,1.3,9
2014/1/13 1:50,0.7,10,0.8,16,0.9,10
2014/1/13 1:51,0.6,10,0.7,16,0.9,12
2014/1/13 1:52,0.7,10,0.7,16,1,12
2014/1/13 1:53,0.7,10,0.7,16,0.9,12
2014/1/13 1:54,0.6,11,0.7,16,0.9,13
2014/1/13 1:55,0.6,11,0.6,15,1.1,13
2014/1/13 1:56,0.8,12,0.8,14,1.3,13
2014/1/13 1:57,0.8,12,0.8,12,1.9,12
2014/1/13 1:58,0.9,12,0.9,11,2,12
2014/1/13 1:59,1,12,1,12,1.9,12
2014/1/13 2:00,1,12,1,12,1.8,13
2014/1/13 2:01,1,13,1,12,1.1,11
2014/1/13 2:02,1,13,1,12,1.5,13
2014/1/13 2:03,1.1,13,1.1,13,1.8,14
2014/1/13 2:04,1.2,13,1.2,13,2,15
2014/1/13 2:05,1.2,13,1.2,13,1.9,15
2014/1/13 2:06,1.2,13,1.2,13,1.8,15
2014/1/13 2:07,1.1,14,1.2,13,1.5,14
2014/1/13 2:08,1.1,14,1.1,13,1.6,16
2014/1/13 2:09,1,14,1.1,13,1.8,16
2014/1/13 2:10,1,15,1,13,2,16
2014/1/13 2:11,1.1,15,1.1,13,2,16
2014/1/13 2:12,1.1,15,1.1,13,2.2,16
2014/1/13 2:13,1.2,15,1.2,13,2,14
2014/1/13 2:14,1.1,15,1.1,13,1.4,15
2014/1/13 2:15,1.1,15,1.1,13,2,13
2014/1/13 2:16,1.2,15,1.2,13,1.9,14
2014/1/13 2:17,1.2,15,1.2,15,2.1,15
2014/1/13 2:18,1.2,15,1.2,15,2,16
2014/1/13 2:19,1.1,15,1.2,15,2.5,11
2014/1/13 2:20,1.1,14,1.1,15,1.5,12
2014/1/13 2:21,1.1,14,1.1,15,1.1,14
2014/1/13 2:22,1,14,1.1,15,2.2,11
2014/1/13 2:23,1.1,13,1.1,15,3.2,14
2014/1/13 2:24,1.2,13,1.2,15,2.2,12
2014/1/13 2:25,1.2,13,1.2,15,3,14
2014/1/13 2:26,1.3,13,1.3,13,3.6,12
2014/1/13 2:27,1.4,13,1.4,13,3.6,13
2014/1/13 2:28,1.6,13,1.6,13,4.1,12
2014/1/13 2:29,1.8,13,1.8,13,3.7,13
2014/1/13 2:30,1.9,13,1.9,13,2.5,14
2014/1/13 2:31,2,13,2,13,2.9,13
2014/1/13 2:32,2,13,2,13,2.9,13
2014/1/13 2:33,1.8,13,2,13,1,15
2014/1/13 2:34,1.8,13,1.8,13,2.1,16
2014/1/13 2:35,1.8,14,1.8,13,1.8,16
2014/1/13 2:36,1.7,14,1.7,13,1.9,15
2014/1/13 2:37,1.6,14,1.6,13,1.8,15
2014/1/13 2:38,1.4,15,1.5,13,1.8,15
2014/1/13 2:39,1.2,15,1.4,13,1.9,13
2014/1/13 2:40,1.1,14,1.2,13,1.5,11
2014/1/13 2:41,1.1,14,1.1,13,1.5,11
2014/1/13 2:42,1.1,14,1.1,13,2.2,13
2014/1/13 2:43,1.1,14,1.1,13,2.7,13
2014/1/13 2:44,1.1,14,1.2,14,2.7,13
2014/1/13 2:45,1.1,14,1.1,14,1.8,16
2014/1/13 2:46,1.1,14,1.2,14,2.1,15
2014/1/13 2:47,1.2,14,1.2,14,2,15
2014/1/13 2:48,1.2,13,1.2,15,2.2,12
2014/1/13 2:49,1.1,13,1.2,15,1,12
2014/1/13 2:50,1.1,13,1.1,14,1.5,12
2014/1/13 2:51,1.1,13,1.1,14,2.2,12
2014/1/13 2:52,1.2,13,1.2,14,2.7,13
2014/1/13 2:53,1.3,13,1.3,13,3,13
2014/1/13 2:54,1.4,13,1.4,13,3.2,12
2014/1/13 2:55,1.5,13,1.5,13,3.1,11
2014/1/13 2:56,1.5,13,1.5,13,1.6,14
2014/1/13 2:57,1.4,13,1.5,13,1.6,13
2014/1/13 2:58,1.4,13,1.4,13,1.6,13
2014/1/13 2:59,1.5,12,1.5,13,2.7,12
2014/1/13 3:00,1.6,12,1.6,12,3.6,10
2014/1/13 3:01,1.7,12,1.7,12,2.5,15
2014/1/13 3:02,1.6,12,1.7,12,2.4,14
2014/1/13 3:03,1.5,13,1.6,12,3.5,16
2014/1/13 3:04,1.5,13,1.5,12,3.6,16
2014/1/13 3:05,1.5,13,1.5,12,3.2,15
2014/1/13 3:06,1.5,13,1.5,12,1.6,12
2014/1/13 3:07,1.4,14,1.5,12,0.8,16
2014/1/13 3:08,1.3,14,1.4,12,0.8,7
2014/1/13 3:09,1.2,15,1.3,12,0.8,5
2014/1/13 3:10,1.1,15,1.2,12,0.9,2
2014/1/13 3:11,1,16,1.1,13,1.6,1
2014/1/13 3:12,1.1,1,1.1,12,2.2,16
2014/1/13 3:13,1.1,1,1.1,13,3.3,1
2014/1/13 3:14,1,1,1.1,13,2.1,15
2014/1/13 3:15,0.8,1,0.9,13,2,2
2014/1/13 3:16,0.8,2,0.8,13,1.9,3
2014/1/13 3:17,0.9,3,0.9,14,2.2,9
2014/1/13 3:18,1,3,1,14,1.8,9
2014/1/13 3:19,1,4,1,14,1.5,9
2014/1/13 3:20,1.1,5,1.1,16,1.6,8
2014/1/13 3:21,1.1,6,1.1,1,1.8,1
2014/1/13 3:22,1,11,1.1,1,1.6,16
2014/1/13 3:23,0.9,11,1,1,1.5,1
2014/1/13 3:24,0.9,10,0.9,4,1.8,16
2014/1/13 3:25,1,12,1,4,2,1
2014/1/13 3:26,0.9,14,1,4,1.5,16
2014/1/13 3:27,0.9,15,0.9,4,1.8,16
2014/1/13 3:28,1,16,1,4,2,1
2014/1/13 3:29,1,16,1,4,2.6,15
2014/1/13 3:30,1.1,16,1.1,5,2.7,14
2014/1/13 3:31,1.1,16,1.1,7,2.7,15
2014/1/13 3:32,1.1,16,1.1,16,1.8,9
2014/1/13 3:33,1.1,15,1.1,16,1.5,12
2014/1/13 3:34,1.1,15,1.1,16,2.2,9
2014/1/13 3:35,1.2,13,1.2,14,2,10
2014/1/13 3:36,1.2,11,1.2,14,2.1,8
2014/1/13 3:37,1.2,10,1.2,14,1.4,9
2014/1/13 3:38,1.2,10,1.2,14,2.2,10
2014/1/13 3:39,1.3,10,1.3,10,3.3,10
2014/1/13 3:40,1.3,10,1.3,10,2.5,10
2014/1/13 3:41,1.3,10,1.3,10,2.1,9
2014/1/13 3:42,1.4,10,1.4,10,2.2,12
2014/1/13 3:43,1.4,10,1.4,10,1.5,12
2014/1/13 3:44,1.4,10,1.5,10,2.2,12
2014/1/13 3:45,1.4,11,1.4,10,1.9,13
2014/1/13 3:46,1.4,11,1.4,10,1.5,14
2014/1/13 3:47,1.4,11,1.4,10,1.3,12
2014/1/13 3:48,1.3,11,1.4,10,0.9,8
2014/1/13 3:49,1.1,11,1.3,10,0.4,8
2014/1/13 3:50,1,11,1.1,10,1.9,10
2014/1/13 3:51,1,11,1,10,2.4,9
2014/1/13 3:52,1,11,1,10,2.5,10
2014/1/13 3:53,1.1,10,1.1,10,3,9
2014/1/13 3:54,1.2,10,1.2,10,3,9
2014/1/13 3:55,1.2,9,1.2,11,2.5,9
2014/1/13 3:56,1.2,9,1.2,11,2.6,9
2014/1/13 3:57,1.3,9,1.3,11,2,9
2014/1/13 3:58,1.4,9,1.4,9,1.6,8
2014/1/13 3:59,1.5,9,1.5,9,1.4,8
2014/1/13 4:00,1.5,9,1.6,9,1.3,8
2014/1/13 4:01,1.5,8,1.5,9,1.5,7
2014/1/13 4:02,1.4,8,1.4,9,1.3,8
2014/1/13 4:03,1.3,8,1.4,9,1.3,7
2014/1/13 4:04,1.1,8,1.2,9,1,6
2014/1/13 4:05,1.1,7,1.1,9,1.4,4
2014/1/13 4:06,1,7,1.1,9,1.5,4
2014/1/13 4:07,0.9,6,1,9,1,4
2014/1/13 4:08,0.8,6,0.9,9,0.1,6
2014/1/13 4:09,0.7,6,0.8,9,0.1,8
2014/1/13 4:10,0.6,6,0.7,9,0.8,8
2014/1/13 4:11,0.5,6,0.6,8,0.6,8
2014/1/13 4:12,0.5,6,0.5,8,0,6
2014/1/13 4:13,0.5,6,0.5,8,1.1,7
2014/1/13 4:14,0.4,6,0.5,8,1.1,8
2014/1/13 4:15,0.4,7,0.4,7,0.5,9
2014/1/13 4:16,0.3,7,0.4,7,1.4,12
2014/1/13 4:17,0.4,8,0.4,6,1.4,11
2014/1/13 4:18,0.5,8,0.5,6,1.8,14
2014/1/13 4:19,0.6,9,0.6,6,1.6,12
2014/1/13 4:20,0.7,9,0.7,9,2.2,13
2014/1/13 4:21,0.9,10,0.9,10,2.4,12
2014/1/13 4:22,1,11,1,10,1.6,12
2014/1/13 4:23,1,11,1,10,1,12
2014/1/13 4:24,1.1,11,1.1,11,1.4,13
2014/1/13 4:25,1.1,12,1.1,11,0.9,12
2014/1/13 4:26,1.1,12,1.1,11,0.8,12
2014/1/13 4:27,1.1,12,1.1,11,1.1,14
2014/1/13 4:28,1,12,1.1,11,0.9,12
2014/1/13 4:29,0.9,12,1,11,0.5,12
2014/1/13 4:30,0.7,12,0.9,11,0,9
2014/1/13 4:31,0.5,12,0.7,11,0.5,9
2014/1/13 4:32,0.4,11,0.5,11,0.5,9
2014/1/13 4:33,0.4,11,0.4,11,0.1,7
2014/1/13 4:34,0.3,11,0.3,11,0.3,12
2014/1/13 4:35,0.2,11,0.3,12,0,12
2014/1/13 4:36,0.2,11,0.2,12,0,11
2014/1/13 4:37,0.1,11,0.2,12,0,11
2014/1/13 4:38,0,10,0.1,12,0,9
2014/1/13 4:39,0,10,0,12,0,8
2014/1/13 4:40,0,10,0,12,0.1,1
2014/1/13 4:41,0,10,0,12,0.4,16
2014/1/13 4:42,0,10,0,11,0.3,1
2014/1/13 4:43,0,12,0,11,0,2
2014/1/13 4:44,0,1,0,11,0,2
2014/1/13 4:45,0,2,0,11,0,2
2014/1/13 4:46,0,2,0,11,0,2
2014/1/13 4:47,0,2,0,10,0,2
2014/1/13 4:48,0,2,0,10,0,5
2014/1/13 4:49,0,2,0,10,0,6
2014/1/13 4:50,0,3,0,10,0,3
2014/1/13 4:51,0,3,0,10,0,5
2014/1/13 4:52,0,4,0,10,0,8
2014/1/13 4:53,0,5,0,12,0,9
2014/1/13 4:54,0,6,0,1,0,8
2014/1/13 4:55,0,6,0,2,0,9
2014/1/13 4:56,0,7,0,2,0,9
2014/1/13 4:57,0,8,0,2,0,10
2014/1/13 4:58,0,8,0,2,0,10
2014/1/13 4:59,0,8,0,2,0,8
2014/1/13 5:00,0,9,0,3,0,9
2014/1/13 5:01,0,10,0,3,0.6,16
2014/1/13 5:02,0.1,10,0.1,10,1,16
2014/1/13 5:03,0.2,11,0.2,10,1.3,16
2014/1/13 5:04,0.3,12,0.3,11,1.3,16
2014/1/13 5:05,0.4,13,0.4,13,1.4,15
2014/1/13 5:06,0.5,14,0.5,14,1.8,15
2014/1/13 5:07,0.6,15,0.6,14,1.9,15
2014/1/13 5:08,0.7,15,0.7,15,1.6,15
2014/1/13 5:09,0.8,15,0.8,15,1.5,16
2014/1/13 5:10,0.9,15,0.9,15,1.5,15
2014/1/13 5:11,1.1,15,1.1,15,1.5,15
2014/1/13 5:12,1.1,15,1.1,15,1.5,15
2014/1/13 5:13,1.1,15,1.1,15,1.5,16
2014/1/13 5:14,1,15,1.1,15,0.5,15
2014/1/13 5:15,0.9,15,1,15,0.1,13
2014/1/13 5:16,0.8,15,0.9,15,0.3,8
2014/1/13 5:17,0.8,15,0.8,15,1,7
2014/1/13 5:18,0.7,15,0.7,15,1,6
2014/1/13 5:19,0.6,14,0.7,15,1,6
2014/1/13 5:20,0.6,9,0.6,15,0.9,7
2014/1/13 5:21,0.4,7,0.5,15,0.4,6
2014/1/13 5:22,0.3,7,0.4,15,0,2
2014/1/13 5:23,0.2,7,0.3,15,0.1,15
2014/1/13 5:24,0.2,7,0.2,15,0.6,8
2014/1/13 5:25,0.3,7,0.3,15,1.4,8
2014/1/13 5:26,0.4,7,0.4,15,1.6,8
2014/1/13 5:27,0.4,7,0.4,15,1.9,9
2014/1/13 5:28,0.5,8,0.5,15,1.8,9
2014/1/13 5:29,0.5,8,0.5,14,1.1,9
2014/1/13 5:30,0.5,9,0.5,9,1.1,10
2014/1/13 5:31,0.5,9,0.5,7,0.1,9
2014/1/13 5:32,0.5,9,0.5,7,0,11
2014/1/13 5:33,0.5,9,0.5,7,0,8
2014/1/13 5:34,0.5,9,0.5,7,0.3,14
2014/1/13 5:35,0.5,9,0.5,7,0.4,16
2014/1/13 5:36,0.4,10,0.5,7,0.1,2
2014/1/13 5:37,0.4,10,0.4,7,0.9,1
2014/1/13 5:38,0.3,12,0.3,8,1,16
2014/1/13 5:39,0.3,15,0.3,8,1.3,1
2014/1/13 5:40,0.3,16,0.3,9,1.1,1
2014/1/13 5:41,0.4,1,0.4,9,1,1
2014/1/13 5:42,0.5,16,0.5,9,0.9,15
2014/1/13 5:43,0.5,16,0.5,9,1.1,15
2014/1/13 5:44,0.6,16,0.6,16,1,15
2014/1/13 5:45,0.7,16,0.7,16,1.3,12
2014/1/13 5:46,0.8,16,0.8,16,1.4,13
2014/1/13 5:47,0.9,15,0.9,15,1.5,13
2014/1/13 5:48,0.9,15,0.9,15,1.5,14
2014/1/13 5:49,0.9,15,0.9,15,1.6,13
2014/1/13 5:50,1,14,1,14,1.8,13
2014/1/13 5:51,1.1,14,1.1,14,2,13
2014/1/13 5:52,1.2,14,1.2,14,2,13
2014/1/13 5:53,1.2,13,1.2,14,1.8,14
2014/1/13 5:54,1.3,13,1.3,13,1.6,14
2014/1/13 5:55,1.3,13,1.3,13,1.6,13
2014/1/13 5:56,1.4,13,1.4,13,2,13
2014/1/13 5:57,1.5,13,1.5,13,2.1,13
2014/1/13 5:58,1.5,13,1.5,13,1.8,12
2014/1/13 5:59,1.5,13,1.5,13,1.5,13
2014/1/13 6:00,1.4,13,1.5,13,1.4,13
2014/1/13 6:01,1.3,13,1.4,13,1,10
2014/1/13 6:02,1.2,12,1.3,13,0.9,9
2014/1/13 6:03,1.2,12,1.2,13,1,9
2014/1/13 6:04,1.1,11,1.2,13,0.8,9
2014/1/13 6:05,1,11,1.1,13,0.8,9
2014/1/13 6:06,0.9,10,1,13,1,8
2014/1/13 6:07,0.7,10,0.9,13,0.9,9
2014/1/13 6:08,0.6,9,0.7,13,0,8
2014/1/13 6:09,0.5,9,0.6,13,0.1,14
2014/1/13 6:10,0.4,9,0.5,13,0.3,9
2014/1/13 6:11,0.3,9,0.3,13,0.1,9
2014/1/13 6:12,0.3,9,0.3,12,0.1,8
2014/1/13 6:13,0.2,9,0.3,12,0.1,9
2014/1/13 6:14,0.2,9,0.2,11,0.8,10
2014/1/13 6:15,0.2,10,0.2,11,0.6,10
2014/1/13 6:16,0.1,10,0.1,10,0,10
2014/1/13 6:17,0,10,0.1,10,0.1,3
2014/1/13 6:18,0.1,9,0.1,9,1.3,2
2014/1/13 6:19,0.2,9,0.2,9,1.3,2
2014/1/13 6:20,0.2,9,0.2,9,0.9,1
2014/1/13 6:21,0.3,9,0.3,9,2.4,8
2014/1/13 6:22,0.5,7,0.5,8,3.2,7
2014/1/13 6:23,0.7,6,0.7,6,2.4,5
2014/1/13 6:24,0.8,4,0.8,4,2.1,16
2014/1/13 6:25,1,3,1,3,2.4,16
2014/1/13 6:26,1.1,2,1.1,3,2.2,3
2014/1/13 6:27,1.2,2,1.2,2,1.6,3
2014/1/13 6:28,1.2,2,1.2,2,2.2,3
2014/1/13 6:29,1.3,2,1.3,2,2.6,3
2014/1/13 6:30,1.4,3,1.4,3,2.2,3
2014/1/13 6:31,1.4,2,1.4,3,1.8,3
2014/1/13 6:32,1.4,2,1.4,3,3.7,4
2014/1/13 6:33,1.5,3,1.5,2,3.5,5
2014/1/13 6:34,1.5,3,1.5,2,2.9,6
2014/1/13 6:35,1.5,4,1.5,2,2,7
2014/1/13 6:36,1.5,4,1.5,2,2.6,8
2014/1/13 6:37,1.6,5,1.6,5,2,8
2014/1/13 6:38,1.4,5,1.5,5,0.3,6
2014/1/13 6:39,1.3,6,1.4,5,1.3,9
2014/1/13 6:40,1.2,7,1.3,5,1.1,10
2014/1/13 6:41,1.2,8,1.2,5,0.9,8
2014/1/13 6:42,1.1,8,1.2,5,1.5,11
2014/1/13 6:43,1,9,1.1,5,2.1,9
2014/1/13 6:44,0.9,9,1,5,1.9,9
2014/1/13 6:45,0.9,9,0.9,5,1.5,9
2014/1/13 6:46,0.9,10,0.9,5,2.6,8
2014/1/13 6:47,0.9,10,0.9,5,2.2,9
2014/1/13 6:48,1,10,1,5,2,9
2014/1/13 6:49,1.1,9,1.1,6,2,9
2014/1/13 6:50,1.1,9,1.1,7,1.3,9
2014/1/13 6:51,1.2,9,1.2,8,1.4,8
2014/1/13 6:52,1.2,9,1.2,9,0.9,8
2014/1/13 6:53,1,9,1.2,9,0.5,7
2014/1/13 6:54,1,9,1,9,1,15
2014/1/13 6:55,0.9,8,1,9,0.9,1
2014/1/13 6:56,0.8,8,0.9,9,1.3,1
2014/1/13 6:57,0.7,7,0.8,9,0.9,16
2014/1/13 6:58,0.6,5,0.7,9,0.1,3
2014/1/13 6:59,0.5,5,0.6,9,0.1,5
2014/1/13 7:00,0.6,5,0.6,9,3.7,9
2014/1/13 7:01,0.8,6,0.8,9,4.2,8
2014/1/13 7:02,0.9,5,0.9,9,3.1,8
2014/1/13 7:03,1.1,5,1.1,5,3,8
2014/1/13 7:04,1,7,1.1,5,1.6,7
2014/1/13 7:05,1.1,7,1.1,5,1.8,7
2014/1/13 7:06,1.1,8,1.1,5,2.4,8
2014/1/13 7:07,1.3,8,1.3,8,2.2,7
2014/1/13 7:08,1.4,8,1.4,8,2.2,8
2014/1/13 7:09,1.6,8,1.6,8,2.2,8
2014/1/13 7:10,1.5,8,1.6,8,1.8,9
2014/1/13 7:11,1.2,8,1.4,8,1,9
2014/1/13 7:12,1.1,8,1.2,8,0.9,9
2014/1/13 7:13,0.9,8,1.1,8,0.9,9
2014/1/13 7:14,0.9,8,0.9,8,0.3,15
2014/1/13 7:15,0.8,8,0.9,8,1,1
2014/1/13 7:16,0.8,8,0.8,8,1.3,16
2014/1/13 7:17,0.6,10,0.7,8,0.9,15
2014/1/13 7:18,0.5,10,0.6,8,0.1,14
2014/1/13 7:19,0.5,10,0.5,8,1.9,9
2014/1/13 7:20,0.5,9,0.5,8,2,8
2014/1/13 7:21,0.6,9,0.6,8,2.2,8
2014/1/13 7:22,0.7,8,0.7,8,2.2,8
2014/1/13 7:23,0.7,10,0.7,8,1.3,7
2014/1/13 7:24,0.8,11,0.8,8,0.9,2
2014/1/13 7:25,0.8,11,0.8,8,1.8,1
2014/1/13 7:26,0.9,9,0.9,10,1.5,6
2014/1/13 7:27,1,8,1,8,2.1,6
2014/1/13 7:28,1.2,7,1.2,7,2.5,6
2014/1/13 7:29,1.1,7,1.2,7,1.3,8
2014/1/13 7:30,1.2,7,1.2,7,4.5,4
2014/1/13 7:31,1.1,7,1.2,7,2.5,14
2014/1/13 7:32,1.2,6,1.2,7,3.3,14
2014/1/13 7:33,1.5,6,1.5,6,3.5,12
2014/1/13 7:34,1.6,9,1.6,8,2.6,11
2014/1/13 7:35,1.7,10,1.7,9,2.7,16
2014/1/13 7:36,1.6,10,1.7,9,1.4,10
2014/1/13 7:37,1.4,11,1.6,9,0.4,11
2014/1/13 7:38,1.3,12,1.4,9,0.5,7
2014/1/13 7:39,1.3,12,1.3,9,2.1,2
2014/1/13 7:40,1.4,13,1.4,9,4.2,3
2014/1/13 7:41,1.6,13,1.6,9,6.9,7
2014/1/13 7:42,1.7,11,1.7,9,5.6,8
2014/1/13 7:43,1.5,9,1.7,9,2.7,7
2014/1/13 7:44,1.4,7,1.5,9,2,7
2014/1/13 7:45,1.4,7,1.4,10,1.9,8
2014/1/13 7:46,1.5,6,1.5,12,2.2,8
2014/1/13 7:47,1.6,7,1.6,12,3.2,9
2014/1/13 7:48,1.9,7,1.9,7,5.7,8
2014/1/13 7:49,2,7,2,7,4.4,9
2014/1/13 7:50,1.9,8,2,7,3.5,9
2014/1/13 7:51,1.6,8,1.9,7,2,9
2014/1/13 7:52,1.5,8,1.6,7,4.7,8
2014/1/13 7:53,1.4,8,1.4,7,3.2,1
2014/1/13 7:54,1.5,8,1.5,7,3.5,5
2014/1/13 7:55,1.6,8,1.6,7,4.7,6
2014/1/13 7:56,1.8,8,1.8,7,6.4,5
2014/1/13 7:57,1.9,7,1.9,7,6,3
2014/1/13 7:58,1.7,6,1.9,7,1.5,4
2014/1/13 7:59,1.6,5,1.7,7,1.6,9
2014/1/13 8:00,1.5,5,1.6,8,2.2,9
2014/1/13 8:01,1.6,4,1.6,8,1.5,13
2014/1/13 8:02,1.5,4,1.6,8,2.7,15
2014/1/13 8:03,1.5,4,1.6,8,2.2,15
2014/1/13 8:04,1.5,4,1.6,8,3,3
2014/1/13 8:05,1.5,1,1.6,8,3.6,12
2014/1/13 8:06,1.3,16,1.5,8,2.7,2
2014/1/13 8:07,1.1,13,1.3,7,2.2,11
2014/1/13 8:08,1.2,12,1.2,6,2.7,10
2014/1/13 8:09,1.2,13,1.2,5,2,4
2014/1/13 8:10,1.3,14,1.3,5,3.1,6
2014/1/13 8:11,1.5,2,1.5,4,5,3
2014/1/13 8:12,1.5,2,1.5,4,4.8,3
2014/1/13 8:13,1.6,3,1.6,4,4.1,4
2014/1/13 8:14,1.7,2,1.7,3,3.5,3
2014/1/13 8:15,1.9,2,1.9,3,9,2
2014/1/13 8:16,2.1,2,2.1,2,4.3,14
2014/1/13 8:17,2.5,2,2.5,2,8.6,14
2014/1/13 8:18,2.7,2,2.7,2,6.3,14
2014/1/13 8:19,3,1,3,1,8.1,2
2014/1/13 8:20,3.2,1,3.2,1,6.4,13
2014/1/13 8:21,3.2,16,3.3,16,9,14
2014/1/13 8:22,3.5,16,3.5,16,8.2,16
2014/1/13 8:23,3.6,16,3.6,16,5.4,14
2014/1/13 8:24,3.5,16,3.6,16,2.5,15
2014/1/13 8:25,3.1,15,3.5,16,2.9,13
2014/1/13 8:26,3.1,15,3.1,16,10.7,2
2014/1/13 8:27,3.3,16,3.3,16,8.7,2
2014/1/13 8:28,3.3,16,3.4,16,10.1,16
2014/1/13 8:29,3.2,16,3.3,16,6.1,1
2014/1/13 8:30,3,16,3.2,16,2.5,1
2014/1/13 8:31,2.8,16,2.9,16,2.1,16
2014/1/13 8:32,2.4,15,2.7,16,1.3,8
2014/1/13 8:33,2.1,16,2.4,16,1,8
2014/1/13 8:34,2.2,15,2.2,15,4.7,16
2014/1/13 8:35,2.4,16,2.4,16,6,1
2014/1/13 8:36,2.5,16,2.6,16,7,1
2014/1/13 8:37,2.3,16,2.5,16,5.5,16
2014/1/13 8:38,2.2,16,2.3,16,4.9,1
2014/1/13 8:39,2,16,2.2,15,3.5,2
2014/1/13 8:40,2.2,16,2.2,16,4.8,16
2014/1/13 8:41,2.4,16,2.4,16,6.2,16
2014/1/13 8:42,2.7,16,2.7,16,8.4,15
2014/1/13 8:43,3,16,3,16,6.5,2
2014/1/13 8:44,3.1,16,3.1,16,5.7,15
2014/1/13 8:45,3.1,16,3.2,16,7,14
2014/1/13 8:46,2.9,16,3.1,16,4.1,12
2014/1/13 8:47,2.7,16,2.9,16,3.6,12
2014/1/13 8:48,2.7,16,2.7,16,2.9,2
2014/1/13 8:49,2.6,15,2.7,16,3.3,13
2014/1/13 8:50,2.5,15,2.6,16,5.4,1
2014/1/13 8:51,2.3,15,2.5,16,3.8,16
2014/1/13 8:52,2,16,2.3,16,2.9,2
2014/1/13 8:53,1.9,15,2,16,3.2,15
2014/1/13 8:54,1.8,16,1.9,16,4.1,1
2014/1/13 8:55,1.6,15,1.8,16,3.6,15
2014/1/13 8:56,1.6,16,1.6,16,3.7,2
2014/1/13 8:57,1.6,16,1.6,16,4.1,2
2014/1/13 8:58,1.5,16,1.6,16,4.4,16
2014/1/13 8:59,1.5,16,1.6,15,2.9,14
2014/1/13 9:00,1.5,15,1.5,15,2.1,15
2014/1/13 9:01,1.5,15,1.5,15,1.8,10
2014/1/13 9:02,1.4,16,1.5,16,2.5,1
2014/1/13 9:03,1.5,16,1.6,15,4.3,3
2014/1/13 9:04,1.4,1,1.5,16,3,4
2014/1/13 9:05,1.5,2,1.5,15,3.7,4
2014/1/13 9:06,1.4,2,1.5,16,3.6,3
2014/1/13 9:07,1.3,2,1.3,16,1.9,14
2014/1/13 9:08,1.4,2,1.4,16,3.5,15
2014/1/13 9:09,1.4,1,1.4,16,5.1,16
2014/1/13 9:10,1.3,1,1.4,16,2.7,16
2014/1/13 9:11,1.4,16,1.4,16,3.1,12
2014/1/13 9:12,1.5,14,1.5,16,2.4,11
2014/1/13 9:13,1.5,12,1.5,16,3.1,10
2014/1/13 9:14,1.6,12,1.6,12,3.9,9
2014/1/13 9:15,1.7,12,1.7,12,4.4,8
2014/1/13 9:16,1.7,11,1.7,12,3.7,9
2014/1/13 9:17,1.8,11,1.9,11,4.1,9
2014/1/13 9:18,1.9,10,1.9,11,3.6,8
2014/1/13 9:19,1.9,10,2,10,3,9
2014/1/13 9:20,1.9,9,1.9,10,2,5
2014/1/13 9:21,2,8,2,10,4.4,6
2014/1/13 9:22,2,8,2.1,8,4.1,7
2014/1/13 9:23,2.1,7,2.1,8,4.4,16
2014/1/13 9:24,2.2,7,2.2,7,6.2,16
2014/1/13 9:25,2.2,6,2.2,7,5.1,3
2014/1/13 9:26,2.4,5,2.4,6,6.5,3
2014/1/13 9:27,2.6,4,2.6,4,5.8,3
2014/1/13 9:28,2.9,4,2.9,4,5.8,3
2014/1/13 9:29,3,3,3,3,4.4,3
2014/1/13 9:30,3,3,3,3,3.6,3
2014/1/13 9:31,3,3,3.1,3,2.7,6
2014/1/13 9:32,3.2,3,3.2,3,5.1,5
2014/1/13 9:33,3.2,3,3.3,3,5.1,4
2014/1/13 9:34,3.2,4,3.2,3,5.4,4
2014/1/13 9:35,3.2,4,3.2,3,3,2
2014/1/13 9:36,3.1,4,3.2,3,4.1,2
2014/1/13 9:37,2.9,4,3,3,5.6,3
2014/1/13 9:38,2.8,4,2.9,3,5.6,4
2014/1/13 9:39,3,4,3,3,7,4
2014/1/13 9:40,3.3,4,3.3,3,6.5,5
2014/1/13 9:41,3.3,3,3.3,3,3.7,3
2014/1/13 9:42,3.2,3,3.3,3,3.3,5
2014/1/13 9:43,3.1,3,3.2,4,3.7,4
2014/1/13 9:44,3,3,3.1,4,3.5,5
2014/1/13 9:45,2.9,3,3,4,3.2,3
2014/1/13 9:46,2.9,4,2.9,4,4.8,5
2014/1/13 9:47,2.9,4,3,4,4.4,4
2014/1/13 9:48,2.9,4,3,4,6.9,3
2014/1/13 9:49,2.8,3,2.9,4,6.8,16
2014/1/13 9:50,2.7,3,2.7,4,5.7,2
2014/1/13 9:51,2.8,3,2.8,3,5.4,16
2014/1/13 9:52,2.8,3,2.8,3,3.8,2
2014/1/13 9:53,2.6,3,2.8,3,1.8,16
2014/1/13 9:54,2.6,2,2.6,3,3.2,16
2014/1/13 9:55,2.5,2,2.6,4,1.8,3
2014/1/13 9:56,2.5,2,2.5,4,3.9,1
2014/1/13 9:57,2.4,2,2.5,4,3,2
2014/1/13 9:58,2.2,2,2.3,4,3.6,16
2014/1/13 9:59,2,2,2.2,3,3,16
2014/1/13 10:00,1.7,2,2,3,1.4,3
2014/1/13 10:01,1.4,2,1.6,3,0.8,12
2014/1/13 10:02,1.5,2,1.5,3,4.8,3
2014/1/13 10:03,1.7,2,1.7,3,5.1,2
2014/1/13 10:04,1.9,2,1.9,2,5.7,3
2014/1/13 10:05,2,2,2,2,2.5,2
2014/1/13 10:06,2,2,2,2,3.2,3
2014/1/13 10:07,2,2,2,2,4.1,1
2014/1/13 10:08,2,2,2.1,2,4.2,1
2014/1/13 10:09,2.1,2,2.1,2,4.2,1
2014/1/13 10:10,2.3,2,2.3,2,4.5,3
2014/1/13 10:11,2.5,2,2.5,2,5.1,2
2014/1/13 10:12,2.6,2,2.6,2,6.8,3
2014/1/13 10:13,2.5,2,2.6,2,3.2,4
2014/1/13 10:14,2.3,2,2.5,2,2,4
2014/1/13 10:15,2.3,2,2.3,2,2.1,3
2014/1/13 10:16,2.3,2,2.3,2,3.9,2
2014/1/13 10:17,2.4,2,2.4,2,4.7,1
2014/1/13 10:18,2.5,2,2.5,2,5.2,1
2014/1/13 10:19,2.5,2,2.5,2,4.7,1
2014/1/13 10:20,2.6,3,2.6,2,4.3,4
2014/1/13 10:21,2.5,3,2.6,2,3.1,3
2014/1/13 10:22,2.2,3,2.5,2,3.2,3
2014/1/13 10:23,2.2,2,2.2,2,4.3,3
2014/1/13 10:24,2.5,2,2.5,2,7.5,2
2014/1/13 10:25,2.7,2,2.7,2,6.2,1
2014/1/13 10:26,2.9,2,2.9,2,6.3,1
2014/1/13 10:27,2.8,2,2.9,2,4.2,3
2014/1/13 10:28,2.7,2,2.8,2,3.6,1
2014/1/13 10:29,2.6,2,2.7,2,4.4,1
2014/1/13 10:30,2.6,2,2.6,2,5.1,3
2014/1/13 10:31,2.8,2,2.8,2,5.8,1
2014/1/13 10:32,3,1,3,1,6.5,1
2014/1/13 10:33,3.1,1,3.1,1,6.8,1
2014/1/13 10:34,3.1,1,3.1,1,4.9,1
2014/1/13 10:35,3,1,3.1,1,4.9,2
2014/1/13 10:36,2.8,1,3,1,3.3,1
2014/1/13 10:37,2.9,1,2.9,1,5.5,16
2014/1/13 10:38,3,1,3,1,6.1,15
2014/1/13 10:39,3,1,3,1,3.3,1
2014/1/13 10:40,3,1,3,1,4.7,1
2014/1/13 10:41,2.9,1,3,1,4.4,1
2014/1/13 10:42,2.7,1,2.9,1,3.6,2
2014/1/13 10:43,2.5,1,2.7,1,3.8,3
2014/1/13 10:44,2.4,1,2.5,1,4.4,16
2014/1/13 10:45,2.4,1,2.4,1,6.1,16
2014/1/13 10:46,2.5,1,2.5,1,5.4,16
2014/1/13 10:47,2.5,1,2.6,1,4.2,2
2014/1/13 10:48,2.3,1,2.4,1,2.7,1
2014/1/13 10:49,2.4,1,2.4,1,7.4,1
2014/1/13 10:50,2.5,1,2.5,1,6.1,2
2014/1/13 10:51,2.6,1,2.6,1,5.5,16
2014/1/13 10:52,2.8,1,2.8,1,4.8,1
2014/1/13 10:53,2.8,1,2.8,1,3.7,3
2014/1/13 10:54,3.1,1,3.1,1,7.1,3
2014/1/13 10:55,3.2,1,3.3,1,6.4,2
2014/1/13 10:56,3.4,1,3.4,1,6,3
2014/1/13 10:57,3.6,2,3.6,2,6.3,3
2014/1/13 10:58,3.9,2,3.9,2,7.5,4
2014/1/13 10:59,3.9,2,4,2,5.5,3
2014/1/13 11:00,3.8,2,3.9,2,6,2
2014/1/13 11:01,3.8,2,3.8,2,5.7,2
2014/1/13 11:02,4,2,4,2,6.3,2
2014/1/13 11:03,4,3,4,2,5.5,2
2014/1/13 11:04,3.8,2,4,2,4.4,1
2014/1/13 11:05,3.7,2,3.7,2,6.8,16
2014/1/13 11:06,3.7,2,3.8,2,8.3,16
2014/1/13 11:07,3.7,2,3.7,2,5.8,15
2014/1/13 11:08,3.5,1,3.7,2,6,15
2014/1/13 11:09,3.7,1,3.7,2,7.8,15
2014/1/13 11:10,3.8,1,3.8,2,6.2,16
2014/1/13 11:11,3.8,1,3.8,2,6.1,16
2014/1/13 11:12,3.8,16,3.8,2,5.5,15
2014/1/13 11:13,3.7,16,3.8,3,4.7,2
2014/1/13 11:14,3.8,16,3.8,2,4.4,16
2014/1/13 11:15,3.6,16,3.8,2,5.4,16
2014/1/13 11:16,3.6,16,3.6,1,7.9,16
2014/1/13 11:17,3.5,16,3.6,1,5.4,16
2014/1/13 11:18,3.6,16,3.6,1,7.2,1
2014/1/13 11:19,3.5,16,3.6,1,6.2,15
2014/1/13 11:20,3.4,16,3.5,1,5,15
2014/1/13 11:21,3.2,16,3.4,16,3.8,14
2014/1/13 11:22,3,16,3.2,16,2.6,16
2014/1/13 11:23,3.1,16,3.1,16,5.1,15
2014/1/13 11:24,3.1,16,3.1,16,6.4,1
2014/1/13 11:25,3.5,16,3.5,16,8.9,16